TimeEDT,TemperatureF,Dew PointF,Humidity,Sea Level PressureIn,VisibilityMPH,Wind Direction,Wind SpeedMPH,Gust SpeedMPH,PrecipitationIn,Events,Conditions,WindDirDegrees,DateUTC
12:15 AM,71.4,63.1,75,30.05,10.0,SSE,3.5,-,N/A,,Mostly Cloudy,160,2013-08-06 04:15:00
12:35 AM,71.2,63.3,76,30.05,10.0,SSE,3.5,-,N/A,,Scattered Clouds,150,2013-08-06 04:35:00
12:55 AM,70.7,63.7,78,30.05,10.0,Calm,Calm,-,N/A,,Clear,0,2013-08-06 04:55:00
1:15 AM,70.3,63.9,80,30.05,10.0,Calm,Calm,-,N/A,,Clear,0,2013-08-06 05:15:00
1:35 AM,70.0,64.0,81,30.05,10.0,SSE,3.5,-,N/A,,Mostly Cloudy,150,2013-08-06 05:35:00
1:55 AM,70.0,64.2,82,30.05,10.0,South,3.5,-,N/A,,Mostly Cloudy,180,2013-08-06 05:55:00
2:15 AM,70.0,64.4,82,30.04,10.0,Calm,Calm,-,N/A,,Mostly Cloudy,0,2013-08-06 06:15:00
2:35 AM,69.3,63.9,83,30.04,10.0,Calm,Calm,-,N/A,,Scattered Clouds,0,2013-08-06 06:35:00
2:55 AM,69.1,63.7,83,30.03,10.0,Calm,Calm,-,N/A,,Mostly Cloudy,0,2013-08-06 06:55:00
3:15 AM,69.1,63.7,83,30.03,10.0,Calm,Calm,-,N/A,,Mostly Cloudy,0,2013-08-06 07:15:00
3:35 AM,68.2,63.3,84,30.02,10.0,Calm,Calm,-,N/A,,Mostly Cloudy,0,2013-08-06 07:35:00
3:55 AM,67.1,63.7,89,30.02,10.0,Calm,Calm,-,N/A,,Scattered Clouds,0,2013-08-06 07:55:00
4:15 AM,66.2,63.3,90,30.02,10.0,Calm,Calm,-,N/A,,Mostly Cloudy,0,2013-08-06 08:15:00
4:35 AM,66.2,63.7,92,30.02,10.0,Calm,Calm,-,N/A,,Overcast,0,2013-08-06 08:35:00
4:55 AM,66.7,64.4,92,30.02,10.0,Calm,Calm,-,N/A,,Overcast,0,2013-08-06 08:55:00
5:15 AM,67.3,64.8,92,30.02,10.0,Calm,Calm,-,N/A,,Overcast,0,2013-08-06 09:15:00
5:35 AM,68.2,64.2,87,30.02,10.0,Calm,Calm,-,N/A,,Overcast,0,2013-08-06 09:35:00
5:55 AM,68.4,64.4,87,30.03,10.0,Calm,Calm,-,N/A,,Overcast,0,2013-08-06 09:55:00
6:15 AM,68.2,64.8,89,30.04,10.0,Calm,Calm,-,N/A,,Overcast,0,2013-08-06 10:15:00
6:35 AM,68.2,64.6,88,30.04,10.0,Calm,Calm,-,N/A,,Mostly Cloudy,0,2013-08-06 10:35:00
6:55 AM,68.7,63.7,84,30.05,10.0,Calm,Calm,-,N/A,,Mostly Cloudy,0,2013-08-06 10:55:00
7:15 AM,68.5,63.3,83,30.05,10.0,Calm,Calm,-,N/A,Rain,Light Rain,0,2013-08-06 11:15:00
7:35 AM,68.4,63.3,84,30.05,10.0,Calm,Calm,-,N/A,,Light Drizzle,0,2013-08-06 11:35:00
7:55 AM,68.5,64.0,85,30.05,10.0,Calm,Calm,-,N/A,Rain,Light Rain,0,2013-08-06 11:55:00
8:15 AM,69.4,64.6,84,30.05,10.0,Calm,Calm,-,N/A,,Scattered Clouds,0,2013-08-06 12:15:00
8:35 AM,70.2,64.8,83,30.06,10.0,Calm,Calm,-,N/A,Rain,Light Rain,0,2013-08-06 12:35:00
8:55 AM,70.7,64.9,82,30.07,10.0,Calm,Calm,-,N/A,,Scattered Clouds,0,2013-08-06 12:55:00
9:15 AM,71.8,64.8,78,30.07,10.0,Calm,Calm,-,N/A,,Clear,0,2013-08-06 13:15:00
9:35 AM,73.8,64.6,73,30.07,10.0,Calm,Calm,-,N/A,,Clear,0,2013-08-06 13:35:00
9:55 AM,75.9,64.4,67,30.07,10.0,WSW,3.5,-,N/A,,Scattered Clouds,250,2013-08-06 13:55:00
10:15 AM,77.2,64.2,64,30.07,10.0,Calm,Calm,-,N/A,,Scattered Clouds,0,2013-08-06 14:15:00
10:35 AM,77.5,63.9,63,30.07,10.0,SSW,3.5,-,N/A,,Scattered Clouds,210,2013-08-06 14:35:00
10:55 AM,77.9,63.9,62,30.07,10.0,South,3.5,-,N/A,,Mostly Cloudy,190,2013-08-06 14:55:00
11:15 AM,79.0,63.0,58,30.07,10.0,Calm,Calm,-,N/A,,Overcast,0,2013-08-06 15:15:00
11:35 AM,78.6,62.8,58,30.08,10.0,Calm,Calm,-,N/A,,Overcast,0,2013-08-06 15:35:00
11:55 AM,77.4,63.1,61,30.08,10.0,Calm,Calm,-,N/A,,Overcast,0,2013-08-06 15:55:00
12:15 PM,77.2,64.9,66,30.08,10.0,Calm,Calm,-,N/A,,Overcast,0,2013-08-06 16:15:00
12:35 PM,80.1,65.7,61,30.08,10.0,South,5.8,-,N/A,,Scattered Clouds,170,2013-08-06 16:35:00
12:55 PM,81.7,64.8,56,30.08,10.0,South,4.6,-,N/A,,Scattered Clouds,170,2013-08-06 16:55:00
1:15 PM,81.0,63.9,56,30.07,10.0,Calm,Calm,-,N/A,,Mostly Cloudy,0,2013-08-06 17:15:00
1:35 PM,79.0,65.3,63,30.08,7.0,SSW,4.6,-,N/A,Rain,Rain,200,2013-08-06 17:35:00
1:55 PM,77.2,68.0,73,30.08,10.0,Calm,Calm,-,N/A,,Overcast,0,2013-08-06 17:55:00
2:15 PM,79.5,67.5,66,30.07,10.0,South,4.6,-,N/A,,Overcast,170,2013-08-06 18:15:00
2:35 PM,81.1,67.5,63,30.06,10.0,SSE,4.6,-,N/A,,Mostly Cloudy,150,2013-08-06 18:35:00
2:55 PM,82.6,67.5,60,30.05,10.0,SE,4.6,-,N/A,,Scattered Clouds,140,2013-08-06 18:55:00
3:15 PM,81.7,65.8,58,30.05,10.0,East,4.6,-,N/A,,Mostly Cloudy,90,2013-08-06 19:15:00
3:35 PM,82.6,66.7,59,30.05,10.0,East,4.6,-,N/A,,Mostly Cloudy,100,2013-08-06 19:35:00
3:55 PM,81.7,67.1,61,30.05,10.0,ESE,8.1,-,N/A,,Overcast,110,2013-08-06 19:55:00
4:15 PM,81.9,67.5,62,30.05,10.0,East,5.8,-,N/A,,Overcast,100,2013-08-06 20:15:00
4:35 PM,82.2,67.1,60,30.05,10.0,SE,3.5,-,N/A,,Mostly Cloudy,130,2013-08-06 20:35:00
4:55 PM,81.9,66.9,60,30.04,10.0,ESE,4.6,-,N/A,,Mostly Cloudy,120,2013-08-06 20:55:00
5:15 PM,81.5,66.9,61,30.04,10.0,ESE,3.5,-,N/A,,Overcast,110,2013-08-06 21:15:00
5:35 PM,80.8,67.6,64,30.04,10.0,East,4.6,-,N/A,,Overcast,80,2013-08-06 21:35:00
5:55 PM,79.9,68.4,68,30.04,10.0,East,4.6,-,N/A,,Overcast,80,2013-08-06 21:55:00
6:15 PM,79.9,68.4,68,30.04,10.0,East,4.6,-,N/A,,Overcast,100,2013-08-06 22:15:00
6:35 PM,79.7,69.1,70,30.03,10.0,ENE,4.6,-,N/A,,Overcast,70,2013-08-06 22:35:00
6:55 PM,78.8,69.8,74,30.04,10.0,East,4.6,-,N/A,,Overcast,90,2013-08-06 22:55:00
7:15 PM,78.6,69.1,72,30.04,10.0,East,4.6,-,N/A,,Overcast,90,2013-08-06 23:15:00
7:35 PM,78.1,69.3,74,30.04,10.0,East,4.6,-,N/A,,Overcast,90,2013-08-06 23:35:00
7:55 PM,77.4,70.0,78,30.05,10.0,ESE,4.6,-,N/A,,Overcast,110,2013-08-06 23:55:00
8:15 PM,76.6,70.7,82,30.06,10.0,ESE,4.6,-,N/A,,Overcast,110,2013-08-07 00:15:00
8:35 PM,76.1,70.7,83,30.06,10.0,ESE,3.5,-,N/A,,Mostly Cloudy,110,2013-08-07 00:35:00
8:55 PM,75.2,70.5,85,30.06,10.0,ESE,4.6,-,N/A,,Scattered Clouds,110,2013-08-07 00:55:00
9:15 PM,74.5,70.2,86,30.06,10.0,Calm,Calm,-,N/A,,Clear,0,2013-08-07 01:15:00
9:35 PM,73.6,69.8,88,30.06,10.0,East,3.5,-,N/A,,Clear,100,2013-08-07 01:35:00
9:55 PM,72.9,69.6,90,30.07,10.0,Calm,Calm,-,N/A,,Scattered Clouds,0,2013-08-07 01:55:00
10:15 PM,72.5,69.4,90,30.07,10.0,Calm,Calm,-,N/A,,Scattered Clouds,0,2013-08-07 02:15:00
10:35 PM,72.1,69.3,91,30.07,10.0,ESE,3.5,-,N/A,,Scattered Clouds,120,2013-08-07 02:35:00
10:55 PM,72.1,68.9,89,30.07,10.0,SE,3.5,-,N/A,,Scattered Clouds,130,2013-08-07 02:55:00
11:15 PM,72.0,68.9,90,30.07,10.0,Calm,Calm,-,N/A,,Mostly Cloudy,0,2013-08-07 03:15:00
11:35 PM,71.6,68.5,90,30.07,10.0,Calm,Calm,-,N/A,,Mostly Cloudy,0,2013-08-07 03:35:00
11:55 PM,71.2,68.2,90,30.08,10.0,Calm,Calm,-,N/A,,Scattered Clouds,0,2013-08-07 03:55:00